[[{"header":{"parameterUnit":"m.s-1","parameterCategory":1,"la1":30.2991,"la2":30.254,"lo1":-89.0895,"lo2":-89.0444,"dy":0.0017,"dx":0.0017,"nx":28,"ny":28,"refTime":"2026-02-13T03:00:00:Z","depth":0,"parameterNumber":2,"parameterNumberName":"U-component_of_WINDS"},"data":[0,0,0,0,0,0,0,0,0,0,0,0,0,0,0,0,0,0,0,0,0,0,0,0,0,0,0,0,0,0,0,0,0,0,0,0,0,0,0,0,0,0,0,0,0,0,0,0,0,0,0,0,0,0,0,0,0,0,-0.4238,-0.4238,0,-0.4222,-0.4222,-0.4222,-0.4201,-0.4201,-0.42,-0.42,-0.4185,-0.4185,-0.4185,0,0,0,0,0,0,0,0,0,0,0,0,0,-0.4251,-0.4251,-0.4238,-0.4238,-0.4238,-0.4222,-0.4222,-0.4222,-0.4201,-0.4201,-0.42,-0.42,-0.4185,-0.4185,-0.4185,0,0,0,0,0,0,0,0,0,0,0,0,0,-0.4241,-0.4251,-0.4238,-0.4225,-0.4224,-0.4222,-0.4222,-0.4222,-0.4201,-0.4201,-0.42,-0.42,-0.4185,-0.4185,-0.4185,-0.4194,0,0,-0.4184,-0.4184,0,0,0,0,0,0,0,0,-0.4242,-0.4241,-0.4227,-0.4226,-0.4225,-0.4213,-0.4221,-0.4212,-0.4201,-0.421,-0.42,-0.4199,-0.4195,-0.4194,-0.4192,-0.4193,-0.4193,-0.4184,-0.4184,-0.4184,-0.4184,0,0,0,0,0,0,0,-0.4243,-0.4241,-0.4232,-0.4227,-0.4226,-0.4221,-0.4219,-0.4219,-0.4205,-0.4209,-0.4208,-0.4206,-0.4194,-0.4192,-0.4191,-0.4192,-0.4184,-0.4184,-0.4184,-0.4184,-0.42,-0.4201,0,0,0,0,0,0,-0.4245,-0.4242,-0.4232,-0.4231,-0.4232,-0.4221,-0.4219,-0.4217,-0.4205,-0.4203,-0.4206,-0.4205,-0.4193,-0.4192,-0.4191,-0.4201,-0.4184,-0.4184,-0.4184,-0.42,-0.42,-0.4201,0,0,0,0,0,0,-0.4245,-0.4244,-0.4233,-0.4236,-0.4234,-0.4221,-0.422,-0.4217,-0.4215,-0.4203,-0.4201,-0.4207,-0.4192,-0.4191,-0.4193,-0.42,-0.4184,-0.4184,-0.4199,-0.42,-0.4201,-0.4221,0,0,0,0,0,0,-0.4246,-0.4245,-0.4248,-0.4236,-0.4234,-0.4236,-0.422,-0.4217,-0.4215,-0.4213,-0.4203,-0.4201,-0.4192,-0.4193,-0.4193,-0.42,-0.4184,-0.4198,-0.4199,-0.42,-0.422,-0.4223,-0.4225,0,0,0,0,0,-0.4246,-0.4255,-0.4248,-0.4247,-0.4238,-0.4236,-0.4235,-0.4223,-0.4216,-0.4219,-0.4211,-0.4201,-0.4199,-0.4194,-0.4193,-0.42,-0.4198,-0.4199,-0.42,-0.4219,-0.4222,-0.4225,0,0,0,0,0,0,-0.4268,-0.4253,-0.4246,-0.4251,-0.4245,-0.4232,-0.4237,-0.4227,-0.4224,-0.4222,-0.4208,-0.4206,-0.421,-0.4205,-0.42,-0.4208,-0.4197,-0.4198,-0.4211,-0.4214,-0.4217,-0.4219,-0.4184,0,0,0,0,0,-0.4273,-0.4273,-0.426,-0.4265,-0.4262,-0.425,-0.4249,-0.424,-0.4234,-0.4231,-0.4223,-0.4218,-0.4215,-0.4215,-0.4212,-0.4219,-0.4216,-0.4223,-0.4225,-0.4227,-0.4229,-0.4232,-0.4235,-0.4205,-0.4205,-0.4205,0,0,-0.4285,-0.4276,-0.4277,-0.4269,-0.4264,-0.4263,-0.4248,-0.4248,-0.4248,-0.4231,-0.4233,-0.4227,-0.4219,-0.4224,-0.4226,-0.422,-0.4236,-0.4229,-0.4231,-0.4231,-0.4233,-0.4236,-0.4239,-0.4205,-0.4205,-0.4205,0,0,-0.4305,-0.4298,-0.4302,-0.4297,-0.4288,-0.4279,-0.428,-0.4269,-0.4265,-0.4266,-0.4253,-0.4252,-0.4249,-0.4244,-0.4241,-0.4259,-0.425,-0.4258,-0.4272,-0.4275,-0.4277,-0.4279,-0.4286,-0.4288,-0.4259,-0.4259,-0.4259,0,-0.432,-0.4319,-0.4306,-0.4306,-0.4304,-0.4287,-0.4291,-0.4287,-0.4278,-0.4276,-0.427,-0.4265,-0.4259,-0.4262,-0.4266,-0.4264,-0.4265,-0.426,-0.4278,-0.428,-0.4281,-0.4287,-0.429,-0.426,-0.426,-0.426,-0.426,0,-0.4338,-0.4337,-0.4341,-0.4333,-0.433,-0.4333,-0.432,-0.4319,-0.431,-0.4302,-0.4303,-0.4295,-0.4291,-0.429,-0.4282,-0.4292,-0.4289,-0.428,-0.4269,-0.4286,-0.4291,-0.4293,-0.4262,-0.4262,-0.4261,-0.4261,0,0,-0.4373,-0.4356,-0.4358,-0.4354,-0.4342,-0.4342,-0.4343,-0.4338,-0.4337,-0.4331,-0.4332,-0.4329,-0.4321,-0.4318,-0.4309,-0.4311,-0.4326,-0.4302,-0.4302,-0.4307,-0.4336,-0.4343,-0.4346,-0.4319,-0.4319,-0.432,-0.4337,0,-0.4392,-0.4393,-0.4381,-0.4386,-0.4385,-0.4369,-0.437,-0.4363,-0.4356,-0.4354,-0.4345,-0.4344,-0.4332,-0.433,-0.4332,-0.4324,-0.4331,-0.4322,-0.432,-0.4321,-0.4324,-0.4349,-0.4357,-0.4373,-0.4339,-0.4339,-0.434,0,-0.4414,-0.4409,-0.4414,-0.4402,-0.4401,-0.4402,-0.4396,-0.4394,-0.4386,-0.438,-0.4376,-0.4366,-0.4366,-0.4355,-0.4355,-0.4349,-0.4348,-0.4343,-0.4344,-0.4344,-0.4332,-0.435,-0.4378,-0.4381,-0.4343,-0.4342,-0.4342,0,-0.444,-0.4434,-0.4436,-0.4432,-0.4418,-0.442,-0.4414,-0.4405,-0.4403,-0.4397,-0.4395,-0.439,-0.4388,-0.4384,-0.4373,-0.4365,-0.4375,-0.4362,-0.437,-0.4371,-0.4374,-0.4374,-0.4403,-0.4371,-0.4371,-0.4371,-0.4371,0,-0.4463,-0.4466,-0.4447,-0.4448,-0.4452,-0.4437,-0.4441,-0.4434,-0.4426,-0.4425,-0.4411,-0.4411,-0.4395,-0.4393,-0.4384,-0.4386,-0.4385,-0.438,-0.4378,-0.4382,-0.4383,-0.4382,-0.438,-0.4372,-0.4372,-0.4372,-0.4372,0,-0.4493,-0.448,-0.4481,-0.4467,-0.4463,-0.4467,-0.4455,-0.4455,-0.4446,-0.4446,-0.4445,-0.4431,-0.4428,-0.4415,-0.441,-0.4403,-0.4409,-0.4404,-0.4411,-0.441,-0.4419,-0.4418,-0.4448,-0.4452,-0.4418,-0.4418,-0.4419,0,-0.4508,-0.4511,-0.4497,-0.4495,-0.449,-0.4488,-0.4485,-0.447,-0.4467,-0.4458,-0.446,-0.4455,-0.4451,-0.4447,-0.4437,-0.4432,-0.4427,-0.4438,-0.4426,-0.443,-0.4428,-0.4428,-0.4428,-0.4441,-0.4441,-0.4441,-0.4442,0,-0.4538,-0.4531,-0.4528,-0.4521,-0.4518,-0.4513,-0.4506,-0.4506,-0.4489,-0.4487,-0.4484,-0.4481,-0.4474,-0.447,-0.4464,-0.4458,-0.4447,-0.4445,-0.4447,-0.4451,-0.4456,-0.4454,-0.4419,-0.4445,-0.4444,-0.4444,-0.4444,-0.4444,-0.4562,-0.4563,-0.4553,-0.4549,-0.4543,-0.4537,-0.4537,-0.4527,-0.4524,-0.4517,-0.4508,-0.4506,-0.4497,-0.4487,-0.4481,-0.4479,-0.4473,-0.4476,-0.4477,-0.4478,-0.448,-0.4456,-0.4478,-0.4478,-0.4478,-0.4478,-0.4478,0,-0.4591,-0.4584,-0.458,-0.4571,-0.4568,-0.4557,-0.455,-0.4548,-0.4546,-0.4538,-0.4534,-0.453,-0.4525,-0.4514,-0.4508,-0.4509,-0.4504,-0.4508,-0.4508,-0.4507,-0.4485,-0.4484,-0.4512,-0.4512,-0.4512,-0.4512,-0.4512,-0.4512,-0.4606,-0.4608,-0.4599,-0.4597,-0.459,-0.4587,-0.4583,-0.4578,-0.4571,-0.4567,-0.4563,-0.4555,-0.4546,-0.454,-0.4535,-0.4532,-0.4531,-0.4537,-0.4532,-0.4512,-0.4509,-0.4506,-0.4505,-0.4537,-0.4537,-0.4555,-0.4555,-0.4555]},{"header":{"parameterUnit":"m.s-1","parameterCategory":1,"la1":30.2991,"la2":30.254,"lo1":-89.0895,"lo2":-89.0444,"dy":0.0017,"dx":0.0017,"nx":28,"ny":28,"refTime":"2026-02-13T03:00:00:Z","depth":0,"parameterNumber":3,"parameterNumberName":"V-component_of_WINDS"},"data":[0,0,0,0,0,0,0,0,0,0,0,0,0,0,0,0,0,0,0,0,0,0,0,0,0,0,0,0,0,0,0,0,0,0,0,0,0,0,0,0,0,0,0,0,0,0,0,0,0,0,0,0,0,0,0,0,0,0,-1.0694,-1.0694,0,-1.0709,-1.0709,-1.0709,-1.069,-1.0689,-1.0688,-1.0688,-1.0702,-1.0703,-1.0704,0,0,0,0,0,0,0,0,0,0,0,0,0,-1.0647,-1.0648,-1.0694,-1.0694,-1.0694,-1.0709,-1.0709,-1.0709,-1.069,-1.0689,-1.0688,-1.0687,-1.0702,-1.0703,-1.0704,0,0,0,0,0,0,0,0,0,0,0,0,0,-1.0665,-1.0648,-1.0694,-1.0686,-1.0686,-1.0709,-1.0709,-1.0709,-1.069,-1.0689,-1.0688,-1.0687,-1.0701,-1.0703,-1.0704,-1.0735,0,0,-1.0709,-1.071,0,0,0,0,0,0,0,0,-1.0664,-1.0667,-1.0687,-1.0687,-1.0686,-1.0696,-1.0698,-1.0718,-1.069,-1.0688,-1.0688,-1.0686,-1.0701,-1.0703,-1.0708,-1.0736,-1.0736,-1.0709,-1.071,-1.0711,-1.0711,0,0,0,0,0,0,0,-1.0663,-1.0666,-1.07,-1.0687,-1.0687,-1.0682,-1.0683,-1.0701,-1.07,-1.0688,-1.0687,-1.0689,-1.0701,-1.0706,-1.0708,-1.0737,-1.0709,-1.0711,-1.0712,-1.0712,-1.0791,-1.0792,0,0,0,0,0,0,-1.0663,-1.0665,-1.0699,-1.07,-1.0672,-1.0683,-1.0685,-1.0694,-1.07,-1.07,-1.069,-1.0688,-1.0704,-1.0706,-1.0708,-1.0745,-1.0711,-1.0712,-1.0713,-1.079,-1.0791,-1.0793,0,0,0,0,0,0,-1.0662,-1.0666,-1.0698,-1.0682,-1.0686,-1.0685,-1.0696,-1.0695,-1.0701,-1.0701,-1.0701,-1.0696,-1.0703,-1.0706,-1.0729,-1.0745,-1.0713,-1.0715,-1.0789,-1.079,-1.0792,-1.0819,0,0,0,0,0,0,-1.066,-1.0666,-1.0678,-1.0683,-1.0687,-1.0719,-1.0697,-1.0696,-1.0704,-1.0701,-1.0707,-1.0707,-1.0703,-1.0727,-1.073,-1.0747,-1.0716,-1.0787,-1.0789,-1.0792,-1.0817,-1.0821,-1.0826,0,0,0,0,0,-1.0659,-1.0684,-1.0678,-1.0682,-1.0702,-1.072,-1.0723,-1.0718,-1.0705,-1.0717,-1.0717,-1.0707,-1.0743,-1.0729,-1.0733,-1.0751,-1.0786,-1.0789,-1.0791,-1.0815,-1.0821,-1.0825,0,0,0,0,0,0,-1.0681,-1.0685,-1.0678,-1.0706,-1.0713,-1.0717,-1.0732,-1.0724,-1.0734,-1.0732,-1.0724,-1.0726,-1.075,-1.0752,-1.0737,-1.0781,-1.0762,-1.0766,-1.0779,-1.0784,-1.0789,-1.0788,-1.0717,0,0,0,0,0,-1.0689,-1.0704,-1.0706,-1.073,-1.0734,-1.0732,-1.074,-1.0736,-1.0742,-1.0745,-1.0747,-1.0754,-1.0767,-1.0775,-1.0787,-1.0816,-1.0818,-1.083,-1.0835,-1.0838,-1.0842,-1.0858,-1.0864,-1.0801,-1.0801,-1.0801,0,0,-1.0705,-1.071,-1.0719,-1.0735,-1.074,-1.0755,-1.0735,-1.0752,-1.0763,-1.0748,-1.077,-1.0771,-1.0778,-1.0805,-1.0816,-1.0807,-1.0859,-1.0842,-1.0845,-1.0846,-1.0861,-1.0867,-1.0873,-1.0803,-1.0803,-1.0802,0,0,-1.0744,-1.0749,-1.077,-1.0775,-1.0783,-1.0781,-1.0786,-1.0792,-1.0792,-1.0814,-1.0803,-1.0816,-1.0838,-1.0844,-1.085,-1.089,-1.0881,-1.0894,-1.0918,-1.0934,-1.0939,-1.0943,-1.0958,-1.0964,-1.0897,-1.0897,-1.0898,0,-1.0764,-1.0787,-1.0781,-1.08,-1.0807,-1.0793,-1.0815,-1.082,-1.0831,-1.0836,-1.0826,-1.0854,-1.0857,-1.0885,-1.0895,-1.09,-1.0906,-1.0894,-1.0938,-1.0943,-1.0947,-1.0961,-1.0967,-1.0899,-1.0899,-1.0899,-1.0899,0,-1.0812,-1.0828,-1.0844,-1.0856,-1.0864,-1.0884,-1.0881,-1.089,-1.0885,-1.0885,-1.0907,-1.0911,-1.0924,-1.093,-1.0924,-1.0957,-1.0951,-1.094,-1.0921,-1.0955,-1.0968,-1.0973,-1.0901,-1.0901,-1.09,-1.09,0,0,-1.0865,-1.0874,-1.088,-1.0885,-1.0892,-1.0905,-1.0923,-1.0936,-1.0945,-1.0953,-1.0969,-1.0988,-1.0977,-1.0984,-1.0979,-1.0993,-1.1026,-1.0979,-1.0979,-1.0989,-1.1062,-1.1072,-1.1078,-1.1019,-1.102,-1.1021,-1.1062,0,-1.0905,-1.0938,-1.0933,-1.0965,-1.098,-1.0968,-1.0984,-1.099,-1.099,-1.1003,-1.1003,-1.1017,-1.1001,-1.1005,-1.1018,-1.1019,-1.104,-1.1016,-1.1034,-1.1035,-1.1034,-1.1085,-1.1095,-1.1134,-1.1067,-1.1068,-1.1069,0,-1.0956,-1.0966,-1.1,-1.1005,-1.1011,-1.1026,-1.1038,-1.105,-1.1057,-1.1056,-1.1063,-1.1056,-1.1074,-1.1055,-1.108,-1.1064,-1.1071,-1.1072,-1.1073,-1.1076,-1.1054,-1.109,-1.1146,-1.1152,-1.1077,-1.1076,-1.1075,0,-1.0992,-1.1015,-1.1038,-1.1043,-1.105,-1.106,-1.1064,-1.1069,-1.1077,-1.1087,-1.1092,-1.1104,-1.111,-1.1119,-1.1115,-1.1101,-1.1142,-1.1122,-1.1142,-1.1142,-1.1152,-1.1152,-1.1211,-1.1155,-1.1155,-1.1155,-1.1155,0,-1.1038,-1.1059,-1.1055,-1.1069,-1.1093,-1.1086,-1.111,-1.1111,-1.1116,-1.1131,-1.112,-1.1134,-1.1127,-1.114,-1.1136,-1.1159,-1.1161,-1.1161,-1.116,-1.1163,-1.1163,-1.1168,-1.1166,-1.1156,-1.1156,-1.1156,-1.1155,0,-1.1083,-1.1081,-1.1106,-1.111,-1.1112,-1.1129,-1.1133,-1.1146,-1.1145,-1.1163,-1.1167,-1.1166,-1.1181,-1.1177,-1.1193,-1.1191,-1.1219,-1.1214,-1.1217,-1.1216,-1.1237,-1.1235,-1.1302,-1.1311,-1.1249,-1.1249,-1.125,0,-1.1113,-1.1129,-1.1135,-1.1145,-1.1149,-1.1163,-1.1172,-1.1166,-1.1175,-1.1184,-1.1196,-1.121,-1.1221,-1.1245,-1.1246,-1.1258,-1.1254,-1.1276,-1.1256,-1.1258,-1.1255,-1.1255,-1.1257,-1.1281,-1.1282,-1.1282,-1.1283,0,-1.1166,-1.1164,-1.1177,-1.1189,-1.12,-1.1209,-1.1217,-1.1225,-1.122,-1.1231,-1.1246,-1.1255,-1.1271,-1.1285,-1.1297,-1.1299,-1.1291,-1.1289,-1.1294,-1.1298,-1.1299,-1.13,-1.123,-1.1288,-1.1287,-1.1287,-1.1287,-1.1286,-1.1205,-1.1219,-1.1226,-1.1241,-1.1246,-1.1254,-1.1267,-1.1268,-1.1281,-1.1295,-1.129,-1.1308,-1.1314,-1.1328,-1.1332,-1.1346,-1.1337,-1.1345,-1.1347,-1.1349,-1.1352,-1.1296,-1.1348,-1.1347,-1.1347,-1.1347,-1.1347,0,-1.1258,-1.1262,-1.1275,-1.1288,-1.1299,-1.129,-1.1298,-1.1309,-1.1325,-1.1331,-1.1342,-1.136,-1.1373,-1.1375,-1.1387,-1.1398,-1.1394,-1.1402,-1.1401,-1.1402,-1.1359,-1.1353,-1.1405,-1.1405,-1.1405,-1.1405,-1.1405,-1.1405,-1.1287,-1.1311,-1.131,-1.1336,-1.134,-1.1357,-1.1363,-1.1371,-1.1376,-1.1397,-1.1408,-1.1409,-1.1413,-1.1426,-1.1438,-1.1438,-1.1444,-1.1453,-1.1452,-1.1411,-1.1405,-1.14,-1.1395,-1.1454,-1.1454,-1.1494,-1.1494,-1.1495]}]]